Location: Fenile
(46.0500°N, 9.5500°E)
Time: 13:27:18
(UTC+00:00)

Cosmos 1633 Rocket - Pass Details

Date: 03 March 2021
Orbit: 606 x 624 km, 82.5° (Epoch: 11 April)

Event Time Altitude Azimuth Distance (km) Brightness Sun altitude
Rises 17:55:46 0° 187° (S) 2,889 6.6 -8.5°
Reaches altitude 10° 17:57:58 10° 188° (S) 1,989 5.8 -8.9°
Maximum altitude 18:02:23 89° 269° (W) 631 3.1 -9.7°
Drops below altitude 10° 18:06:52 10° 9° (N) 2,008 5.6 -10.5°
Sets 18:09:06 0° 9° (N) 2,920 6.4 -10.8°
